RH
27 29 28 32 34 36 33 30 20 19 22 25 27 28 31 37 38 41 43 44 54 50 42 43 48 45 49 56 53 52 50 44 40
24 26 27 30 31 32 30 26 19 20 22 24 25 27 31 37 37 38 44 45 44 40 39 39 39 41 44 46 46 49 53 57 57
21 25 26 27 30 30 30 24 21 23 25 26 27 29 33 37 39 37 37 39 38 37 34 32 34 40 41 40 40 42 46 51 52
20 24 26 29 30 30 28 27 27 28 28 29 30 32 36 41 39 39 36 36 34 31 29 29 30 30 29 28 28 29 32 36 39
23 24 26 27 28 27 27 27 29 32 34 34 34 37 40 40 38 40 40 37 35 30 28 27 25 24 23 22 22 22 23 24 25
27 26 28 29 28 28 27 28 30 31 31 31 32 34 38 41 40 38 37 33 31 28 26 24 23 22 22 20 19 19 19 19 20
31 32 31 29 28 28 30 31 33 33 34 34 35 37 38 39 36 35 34 29 28 27 24 23 22 22 22 22 22 21 22 22 22
39 37 36 32 29 30 31 34 35 36 37 38 38 40 41 40 38 36 33 28 28 26 24 23 22 22 23 24 25 25 25 25 25
43 41 40 36 34 31 33 34 36 37 40 42 42 42 41 42 40 38 34 29 28 26 26 27 25 27 26 26 25 25 25 27 28
44 44 47 41 40 41 37 42 43 40 39 41 41 42 42 41 39 37 36 33 31 31 31 30 28 28 28 28 28 29 29 31 32
46 46 49 54 53 49 48 48 49 47 42 42 42 43 43 42 39 37 37 35 33 34 33 31 30 30 30 31 32 32 32 34 35
48 49 50 52 57 59 55 55 54 53 50 47 45 45 45 44 41 39 37 37 36 35 35 32 32 32 33 34 34 35 35 37 38
47 49 51 54 57 59 59 59 58 58 56 52 49 48 49 48 46 43 40 37 38 38 38 37 35 35 35 35 36 37 38 39 40
41 46 49 53 56 59 61 65 66 66 64 59 53 52 52 55 53 49 44 42 41 40 41 43 41 39 38 38 38 38 41 42 43
42 43 46 48 52 56 59 60 62 65 64 62 59 57 57 60 59 55 52 48 47 47 51 53 52 48 44 43 43 42 42 44 44
42 43 45 47 52 55 58 61 60 60 63 65 65 62 62 62 65 63 61 56 54 54 58 60 61 60 58 57 52 48 46 45 47
45 46 46 44 55 59 62 61 62 64 68 67 69 66 64 65 68 70 71 69 65 61 65 68 67 67 67 69 66 59 57 57 57
43 49 55 55 56 58 59 60 59 64 68 71 73 74 69 69 71 73 76 78 76 74 70 72 73 71 72 72 71 66 65 69 69
33 45 50 55 56 60 64 65 63 67 68 71 70 75 75 77 74 76 77 81 81 82 80 79 78 74 74 76 75 73 72 73 72
34 34 36 42 47 52 59 66 70 70 69 71 78 77 82 83 85 83 82 85 87 87 87 86 85 84 76 73 77 78 77 75 73